Hourly Data Report for August 31, 2016

TORONTO CITY
ONTARIO

43°40'00.000" N
79°24'00.000" W
112.50 m
6158355
71508
XTO

Download Data

Hourly Data (August 2016)
Hourly Data Report for August 31, 2016
TIME
LST
Temp Definition
°C
Dew Point Definition
°C
Rel Hum Definition
%
Precip. Amount Definition
mm

Wind Dir Definition
10's deg

Wind Spd Definition
km/h
Visibility Definition
km
Stn Press Definition
kPa
Hmdx Definition


Wind Chill Definition


Weather Definition


00:00 24.6 18.6 69 0.0 LegendMM LegendMM   100.15 31   LegendNANA
01:00 24.5 18.0 67 0.0 LegendMM LegendMM   100.14 31   LegendNANA
02:00 24.4 17.3 65 0.0 LegendMM LegendMM   100.11 30   LegendNANA
03:00 23.8 17.4 67 0.0 LegendMM LegendMM   100.08 29   LegendNANA
04:00 23.5 17.6 70 0.0 LegendMM LegendMM   100.03 29   LegendNANA
05:00 21.9 19.0 84 0.2 LegendMM LegendMM   100.01 29   LegendNANA
06:00 21.5 19.2 87 0.0 LegendMM LegendMM   100.03 28   LegendNANA
07:00 22.4 18.4 79 0.0 LegendMM LegendMM   100.05 29   LegendNANA
08:00 23.0 18.1 74 0.0 LegendMM LegendMM   100.01 29   LegendNANA
09:00 23.7 18.1 71 0.0 LegendMM LegendMM   99.98 30   LegendNANA
10:00 24.7 18.3 67 0.0 LegendMM LegendMM   100.01 31   LegendNANA
11:00 26.2 18.3 62 0.0 LegendMM LegendMM   99.97 32   LegendNANA
12:00 26.2 18.8 64 0.0 LegendMM LegendMM   99.92 33   LegendNANA
13:00 25.3 17.7 63 0.0 LegendMM LegendMM   99.89 31   LegendNANA
14:00 26.8 19.2 63 0.0 LegendMM LegendMM   99.83 34   LegendNANA
15:00 27.7 12.8 40 0.0 LegendMM LegendMM   99.79 30   LegendNANA
16:00 26.9 13.0 42 0.0 LegendMM LegendMM   99.82 30   LegendNANA
17:00 24.6 13.1 49 0.0 LegendMM LegendMM   99.87 27   LegendNANA
18:00 23.9 11.7 46 0.0 LegendMM LegendMM   99.90 26   LegendNANA
19:00 22.2 9.9 45 0.0 LegendMM LegendMM   99.96     LegendNANA
20:00 21.1 12.2 57 0.0 LegendMM LegendMM   100.04     LegendNANA
21:00 20.6 12.4 59 0.0 LegendMM LegendMM   100.06     LegendNANA
22:00 20.1 12.4 61 0.0 LegendMM LegendMM   100.08     LegendNANA
23:00 19.3 12.5 65 0.0 LegendMM LegendMM   100.11     LegendNANA

Notes on Data Quality.

Legend

  • E = Estimated
  • M = Missing
  • NA = Not Available*
  • [empty] = Indicates an unobserved value
Date modified: